Location: Coche
(10.4506°N, 66.9257°W)
Time: 03:48:46
(UTC+00:00)

YAOGAN 1 - Pass Details

Date: 06 July 2022
Orbit: 617 x 619 km, 97.9° (Epoch: 14 August)

Event Time Altitude Azimuth Distance (km) Brightness Sun altitude
Rises 00:32:58 0° 201° (SSW) 2,883 5.9 -22.7°
Reaches altitude 10° 00:35:56 10° 224° (SW) 1,978 5.3 -23.3°
Maximum altitude 00:38:29 15° 260° (W) 1,648 5.3 -23.8°
Drops below altitude 10° 00:41:01 10° 297° (WNW) 1,978 6.2 -24.4°
Sets 00:44:01 0° 320° (NW) 2,883 7.2 -25.0°
